Location: Unspecified
(0.0000°N, 0.0000°E)
Time: 03:43:34
(UTC+00:00)

Hubble Space Telescope - Pass Details

Date: 12 November 2019
Orbit: 536 x 540 km, 28.5° (Epoch: 10 November)

Event Time Altitude Azimuth Distance (km) Brightness Sun altitude
Rises 19:11:17 0° 267° (W) 2,671 5.7 -20.7°
Reaches altitude 10° 19:14:03 10° 285° (WNW) 1,780 4.2 -21.3°
Maximum altitude 19:17:02 19° 331° (NNW) 1,295 2.8 -22.0°
Enters shadow 19:17:45 18° 346° (NNW) 1,327 2.7 -22.2°
